Location: Pace/Milton
(30.6162°N, 87.1503°W)
Time: 14:31:17
(UTC-06:00)

ISS - Pass Details

Date: 06 December 2021
Orbit: 413 x 422 km, 51.6° (Epoch: 24 January)

Event Time Altitude Azimuth Distance (km) Brightness Sun altitude
Rises 17:06:58 0° 337° (NNW) 2,377 0.1 -4.7°
Reaches altitude 10° 17:10:58 10° 24° (NNE) 1,505 -1.4 -5.5°
Maximum altitude 17:11:23 10° 31° (NNE) 1,493 -1.4 -5.6°
Drops below altitude 10° 17:11:49 10° 39° (NE) 1,503 -1.5 -5.7°
Enters shadow 17:13:20 - 62° (ENE) 1,697 -1.4 -6.0°
